#timestamp,LO_Frequency,Hit,StdDev 
1506423615.2,286046996.7,N
1506423635.9,286046997.7,N
1506423655.7,286046994.1,N
1506423675.6,286046996.4,N
1506423695.4,286046997.6,N
1506423715.2,286046994.1,N
1506423735.1,286046993.4,N
1506423736.0,286046993.4,N
1506423755.8,286046994.8,N
1506423775.6,286046996.9,N
1506423795.5,286046995.1,N
1506423815.3,286046997.6,N
1506423835.1,286046998.6,N
1506423855.9,286047002.0,N
1506423875.7,286046998.5,N
1506423895.5,286047002.4,N
1506423915.3,286046998.9,N
1506423935.2,286046998.0,N
1506423955.0,286046997.5,N
1506423955.9,286046997.5,N
1506423975.7,286046994.2,N
1506423995.6,286046990.3,Y
1506424015.4,286046992.1,P
1506424035.2,286046992.9,N
1506424055.1,286046991.7,P
1506424056.0,286046991.7,Y
1506424075.8,286046999.0,P
1506424095.7,286046998.5,N
1506424115.5,286047000.6,N
1506424135.3,286047001.1,N
1506424155.1,286047000.8,N
1506424175.9,286047001.6,N
1506424195.7,286047002.7,N
1506424215.5,286047005.2,N
1506424235.4,286047005.9,N
1506424255.2,286047006.0,N
1506424275.0,286047003.7,N
1506424275.9,286047003.7,N
1506424295.8,286047003.5,N
1506424315.6,286047001.8,N
1506424335.4,286047000.0,N
1506424355.3,286046998.5,N
1506424375.1,286047003.5,N
1506424376.0,286047003.5,N
1506424395.8,286047005.8,N
1506424415.7,286047008.2,N
1506424435.5,286047005.1,N
1506424455.3,286047003.7,N
1506424475.1,286047003.9,N
1506424495.9,286047004.4,N
1506424515.7,286047003.8,N
1506424535.5,286047005.7,N
1506424555.4,286047002.6,N
1506424575.2,286046998.6,N
1506424595.0,286046996.7,N
1506424595.9,286046996.7,N
1506424615.8,286046997.9,N
1506424635.6,286046998.1,N
1506424655.4,286046999.0,N
1506424675.3,286046997.1,N
1506424695.1,286047000.5,N
1506424696.0,286047000.5,N
1506424715.8,286046997.7,N
1506424735.7,286047004.3,N
1506424755.5,286047005.2,N
1506424775.3,286047008.2,N
1506424795.2,286047007.1,N
1506424815.9,286047004.2,N
1506424835.7,286046999.7,N
1506424855.5,286047000.3,N
1506424875.4,286046996.9,N
1506424895.2,286047001.0,N
1506424915.0,286047004.1,N
1506424915.9,286047004.1,N
1506424935.8,286047004.0,N
1506424955.6,286047001.5,N
1506424975.4,286047004.0,N
1506424995.3,286047004.7,N
1506425015.1,286047009.2,N
1506425035.8,286047004.9,N
1506425055.7,286047007.3,N
1506425075.5,286047005.4,N
1506425095.3,286047001.4,N
1506425115.2,286047006.6,N
1506425135.9,286047004.6,N
1506425155.7,286047004.9,N
1506425175.6,286047002.9,N
1506425195.4,286047002.3,N
1506425215.2,286047002.0,N
1506425235.0,286047003.6,N
1506425236.0,286047003.6,N
1506425255.8,286047001.5,N
1506425275.6,286047005.9,N
1506425295.4,286047004.3,N
1506425315.3,286047002.8,N
1506425335.1,286046996.7,N
1506425355.8,286046996.9,N
1506425375.7,286047004.3,N
1506425395.5,286047004.2,N
1506425415.3,286047005.9,N
1506425435.2,286047002.8,N
1506425455.9,286047002.1,N
1506425475.7,286046999.7,N
1506425495.6,286046998.7,N
1506425515.4,286046999.6,N
1506425535.2,286046999.4,N
1506425555.1,286047000.5,N
1506425556.0,286047000.5,N
1506425575.8,286047004.4,N
1506425595.6,286047004.2,N
1506425615.4,286047004.9,N
1506425635.3,286047007.6,N
1506425655.1,286047003.4,N
1506425675.8,286047000.2,N
1506425695.7,286046999.8,N
1506425715.5,286047002.6,N
1506425735.3,286047003.7,N
1506425755.2,286047004.5,N
1506425775.9,286047003.6,N
1506425795.7,286047007.3,N
1506425815.6,286047008.8,Y
1506425835.4,286047005.3,P
1506425855.2,286047003.1,N
1506425875.1,286047005.2,P
1506425876.0,286047005.2,Y
1506425895.8,286047001.0,P
1506425915.6,286047002.6,N
1506425935.5,286047001.1,N
1506425955.3,286047002.6,N
1506425975.1,286047001.1,N
1506425995.9,286047002.3,N
1506426015.7,286047003.4,Y
1506426035.5,286047003.9,P
1506426055.4,286046998.5,N
1506426075.2,286046998.2,N
1506426095.0,286046999.6,N
1506426095.9,286046999.6,N
1506426115.8,286046998.9,N
1506426135.6,286046994.9,N
1506426155.4,286046993.9,N
1506426175.3,286046990.1,Y
1506426195.1,286046997.7,P
1506426196.0,286046997.7,P
1506426215.8,286046994.9,P
1506426235.7,286046996.8,N
1506426255.5,286046997.4,N
1506426275.3,286046999.5,N
1506426295.2,286046999.6,N
1506426315.9,286046995.3,Y
1506426335.7,286046998.0,P
1506426355.6,286046994.0,P
1506426375.4,286046988.6,P
1506426395.2,286046994.4,N
1506426415.0,286046999.6,N
1506426416.0,286046999.6,N
1506426435.8,286047000.1,N
1506426455.6,286046998.6,N
1506426475.4,286046999.7,N
1506426495.3,286046999.5,N
1506426515.1,286047000.6,N
1506426535.8,286047001.0,N
1506426555.7,286046998.1,N
1506426575.5,286046996.2,N
1506426595.3,286046992.4,N
1506426615.2,286046998.0,N
1506426635.9,286046995.7,N
1506426655.7,286046995.7,N
1506426675.6,286046992.9,N
1506426695.4,286046990.5,Y
1506426715.2,286046995.3,P
1506426735.1,286046993.3,P
1506426736.0,286046993.3,P
1506426755.8,286046997.3,N
1506426775.6,286047002.4,N
1506426795.5,286047002.5,N
1506426815.3,286046999.8,N
1506426835.1,286047000.4,N
1506426855.9,286046998.9,N
1506426875.7,286046999.1,N
1506426895.5,286046996.3,N
1506426915.3,286046993.3,N
1506426935.2,286046991.7,N
1506426955.0,286046994.4,N
1506426955.9,286046994.4,N
1506426975.7,286046991.9,N
1506426995.6,286046995.2,N
1506427015.4,286046999.2,N
1506427035.2,286046998.5,N
1506427055.1,286046995.4,N
1506427056.0,286046995.4,N
1506427075.8,286046997.7,N
1506427095.6,286046998.8,N
1506427115.5,286046997.4,N
1506427135.3,286046996.7,N
1506427155.1,286046993.7,N
1506427175.9,286046994.1,N
1506427195.7,286046994.1,N
